Location: Unspecified
(41.5000°N, 0.0000°E)
Time: 03:34:03
(UTC+00:00)

deb Explorer IX - Pass Details

Date: 23 June 2019
Orbit: 544 x 1107 km, 38.8° (Epoch: 12 October)

Event Time Altitude Azimuth Distance (km) Brightness Sun altitude
Rises 14:38:24 0° 256° (WSW) 3,820 ? 52.9°
Reaches altitude 10° 14:41:05 10° 254° (WSW) 2,909 ? 52.4°
Maximum altitude 14:48:17 70° 172° (S) 1,171 ? 51.1°
Drops below altitude 10° 14:55:31 10° 91° (E) 2,921 ? 49.8°
Sets 14:58:12 0° 89° (E) 3,836 ? 49.3°
